Location: Rio Tanui
(39.9167°N, 8.5167°E)
Time: 15:27:30
(UTC+00:00)

Meteor 2-2 Rocket - Pass Details

Date: 27 June 2024
Orbit: 851 x 928 km, 81.3° (Epoch: 18 July)

Event Time Altitude Azimuth Distance (km) Brightness Sun altitude
Rises 03:09:24 0° 333° (NNW) 3,426 7.5 -8.6°
Reaches altitude 10° 03:12:33 10° 315° (NW) 2,488 6.6 -8.1°
Maximum altitude 03:16:13 18° 274° (W) 1,976 5.7 -7.6°
Drops below altitude 10° 03:19:55 10° 233° (SW) 2,494 6.0 -7.0°
Enters shadow 03:20:30 - 229° (SW) 2,646 6.1 -6.9°
